EW4814 Weather Reports


time (UTC)temp
C
wind
direction
speed
KPH
gust
KPH
rain 1hr
cm
rain 24hr
cm
rain mn
cm
humidity
%
barometer
mb
20260510190504 24 325 8.0 16.1 0.00 0.28 0.03 60 1012.0
20260510190123 23 322 3.2 16.1 0.00 0.28 0.03 62 1011.4
20260510184526 23 296 4.8 14.5 0.00 0.28 0.03 61 1011.4
20260510184504 23 275 6.4 16.1 0.00 0.28 0.03 62 1012.2
20260510184004 23 288 6.4 16.1 0.00 0.28 0.03 62 1012.3
20260510183504 23 322 6.4 12.9 0.00 0.28 0.03 64 1012.2
20260510183120 22 277 3.2 14.5 0.00 0.28 0.03 63 1011.5
20260510182504 23 295 6.4 14.5 0.00 0.28 0.03 62 1012.2
20260510182005 23 316 8.0 20.9 0.00 0.28 0.03 63 1012.1
20260510181542 23 330 4.8 20.9 0.00 0.28 0.03 64 1011.4
20260510181004 24 314 8.0 25.7 0.00 0.28 0.03 61 1012.2
20260510180106 23 276 8.0 17.7 0.00 0.28 0.03 60 1011.4
20260510175525 23 291 6.4 20.9 0.00 0.28 0.03 59 1012.2
20260510175003 23 274 4.8 14.5 0.00 0.28 0.03 59 1012.1
20260510174610 23 163 4.8 16.1 0.00 0.28 0.03 59 1011.4
20260510174503 23 273 4.8 16.1 0.00 0.28 0.03 60 1012.2
20260510174004 23 297 6.4 17.7 0.00 0.28 0.03 60 1012.2
20260510173503 23 284 6.4 17.7 0.00 0.28 0.03 60 1012.3
20260510173010 23 240 6.4 14.5 0.00 0.28 0.03 59 1011.5
20260510172505 23 277 4.8 16.1 0.00 0.28 0.03 62 1012.1
20260510172004 23 283 4.8 16.1 0.00 0.28 0.03 59 1012.1
20260510170525 23 279 4.8 14.5 0.00 0.28 0.03 63 1012.1
20260510170112 23 254 4.8 14.5 0.00 0.28 0.03 65 1011.3
20260510170005 23 263 1.6 11.3 0.00 0.28 0.03 66 1012.0
20260510165003 22 321 4.8 14.5 0.00 0.28 0.03 66 1012.0
20260510164509 22 344 3.2 14.5 0.00 0.28 0.03 68 1011.3
20260510164004 22 312 6.4 14.5 0.00 0.28 0.03 66 1012.1
20260510163031 22 225 3.2 14.5 0.00 0.28 0.03 70 1012.2
20260510163011 22 217 4.8 14.5 0.00 0.28 0.03 70 1011.5
20260510162504 22 257 3.2 8.0 0.00 0.28 0.03 74 1012.2
20260510162003 21 299 4.8 12.9 0.00 0.28 0.03 73 1012.1
20260510161612 21 341 3.2 12.9 0.00 0.28 0.03 74 1011.4
20260510161507 21 326 4.8 12.9 0.00 0.28 0.03 75 1012.1
20260510161004 21 311 4.8 12.9 0.00 0.28 0.03 75 1012.2
20260510154529 20 286 1.6 6.4 0.00 0.28 0.03 82 1011.8
20260510154504 20 278 3.2 9.7 0.00 0.28 0.03 82 1012.5
20260510154005 20 276 4.8 11.3 0.00 0.28 0.03 84 1012.5
20260510153058 18 239 3.2 8.0 0.00 0.28 0.03 83 1011.9
20260510153004 19 191 1.6 8.0 0.00 0.28 0.03 84 1012.6
20260510152503 18 230 3.2 8.0 0.00 0.28 0.03 87 1012.5
20260510151618 18 346 3.2 8.0 0.00 0.28 0.03 90 1011.8
20260510151527 18 311 4.8 11.3 0.00 0.28 0.03 91 1012.5
20260510151003 17 320 4.8 11.3 0.00 0.28 0.03 93 1012.6
20260510150512 17 235 4.8 8.0 0.00 0.28 0.03 97 1012.6
20260510145504 16 242 1.6 8.0 0.00 0.28 0.03 100 1012.7
20260510145025 16 212 1.6 6.4 0.00 0.28 0.03 100 1012.6
20260510144529 16 302 0.0 6.4 0.00 0.28 0.03 100 1012.0
20260510144004 16 166 1.6 6.4 0.00 0.28 0.03 100 1012.6
20260510143507 16 132 1.6 4.8 0.00 0.28 0.03 100 1012.6
20260510143059 15 139 1.6 4.8 0.00 0.28 0.03 100 1011.9
20260510142003 15 7 1.6 4.8 0.00 0.28 0.03 100 1012.7
20260510141505 15 360 1.6 4.8 0.00 0.28 0.03 100 1012.6
20260510141004 14 332 1.6 4.8 0.00 0.28 0.03 99 1012.6
20260510140032 13 360 0.0 6.4 0.00 0.28 0.03 100 1011.8
20260510140004 14 4 1.6 6.4 0.00 0.28 0.03 100 1012.5
20260510135505 13 4 1.6 6.4 0.00 0.28 0.03 100 1012.6
20260510134519 13 32 0.0 3.2 0.00 0.28 0.03 99 1011.8
20260510134504 13 357 1.6 4.8 0.00 0.28 0.03 99 1012.5
20260510134005 13 358 1.6 4.8 0.00 0.28 0.03 99 1012.5
20260510133506 13 12 1.6 4.8 0.00 0.28 0.03 99 1012.5
20260510133116 12 32 0.0 4.8 0.00 0.28 0.03 99 1011.8
20260510132526 12 316 1.6 6.4 0.00 0.28 0.03 99 1012.5
20260510132003 12 340 3.2 6.4 0.00 0.28 0.03 99 1012.5
20260510131525 12 344 3.2 6.4 0.00 0.28 0.03 99 1012.7
20260510131004 12 337 1.6 6.4 0.00 0.28 0.03 99 1012.7
20260510130042 12 159 1.6 6.4 0.00 0.28 0.03 99 1012.6
20260510130014 12 159 0.0 4.8 0.00 0.28 0.03 99 1011.9
20260510124003 12 123 1.6 4.8 0.00 0.28 0.03 99 1012.3
20260510122505 12 61 1.6 4.8 0.00 0.28 0.03 99 1012.2
20260510121619 11 101 0.0 4.8 0.00 0.28 0.03 99 1011.3
20260510120002 11 55 0.0 3.2 0.00 0.28 0.03 99 1011.3
20260510115504 11 0 0.0 3.2 0.00 0.28 0.03 99 1011.7
20260510115004 11 0 0.0 3.2 0.00 0.28 0.03 99 1011.8
20260510114619 11 16 0.0 4.8 0.00 0.28 0.03 99 1011.0
20260510113503 11 0 0.0 4.8 0.00 0.28 0.03 99 1011.7
20260510113035 11 65 0.0 4.8 0.00 0.28 0.03 99 1010.9
20260510111618 10 332 1.6 4.8 0.00 0.28 0.03 99 1011.1
20260510111505 11 40 1.6 3.2 0.00 0.28 0.03 99 1011.7
20260510110031 10 30 1.6 4.8 0.00 0.28 0.03 99 1010.9
20260510105503 11 18 1.6 4.8 0.00 0.28 0.03 99 1011.5
20260510105006 10 5 1.6 3.2 0.00 0.28 0.03 99 1011.3
20260510104545 10 360 1.6 3.2 0.00 0.28 0.03 99 1010.6
20260510104007 10 360 1.6 4.8 0.00 0.28 0.03 99 1011.3
20260510103507 10 0 0.0 4.8 0.00 0.28 0.03 99 1011.1
20260510101004 10 357 3.2 8.0 0.00 0.28 0.03 99 1011.1
20260510100058 10 46 1.6 4.8 0.00 0.28 0.03 98 1010.2
20260510100025 10 39 1.6 3.2 0.00 0.28 0.03 98 1010.9
20260510095504 10 22 1.6 6.4 0.00 0.28 0.03 98 1011.0
20260510094548 10 11 1.6 6.4 0.00 0.28 0.03 98 1010.2
20260510094505 10 33 3.2 6.4 0.00 0.28 0.03 98 1010.9
20260510094003 10 32 3.2 4.8 0.00 0.28 0.03 98 1011.0
20260510093048 10 22 6.4 8.0 0.00 0.28 0.03 98 1010.3
20260510093004 10 352 6.4 14.5 0.00 0.28 0.03 98 1011.0
20260510092503 10 357 8.0 14.5 0.00 0.28 0.03 98 1010.9
20260510091505 10 359 6.4 12.9 0.00 0.28 0.03 98 1011.0
20260510091005 10 356 4.8 11.3 0.00 0.28 0.03 98 1011.1
20260510090504 10 356 6.4 12.9 0.00 0.28 0.03 98 1010.9
20260510090106 10 16 4.8 12.9 0.00 0.28 0.03 98 1010.2
20260510090004 10 347 8.0 19.3 0.00 0.28 0.03 98 1010.9
20260510084629 10 355 3.2 16.1 0.00 0.28 0.03 98 1010.0
20260510084508 10 345 9.7 16.1 0.00 0.28 0.03 98 1011.0
20260510083504 10 348 11.3 17.7 0.00 0.28 0.03 98 1010.9
20260510083026 9 5 6.4 17.7 0.00 0.28 0.03 98 1009.9
20260510081519 9 5 1.6 6.4 0.00 0.28 0.03 98 1009.7
20260510080525 10 5 3.2 4.8 0.00 0.28 0.03 98 1010.3
20260510080114 10 15 1.6 4.8 0.00 0.28 0.03 98 1009.4
20260510075004 10 1 3.2 6.4 0.00 0.28 0.03 98 1010.3
20260510074506 10 353 3.2 6.4 0.00 0.28 0.03 98 1010.2
20260510074504 10 342 1.6 6.4 0.00 0.28 0.03 98 1009.6
20260510074004 10 350 3.2 6.4 0.00 0.28 0.03 98 1010.2
20260510073504 10 334 1.6 4.8 0.00 0.28 0.03 98 1010.2
20260510073005 10 328 1.6 4.8 0.00 0.28 0.03 97 1010.2
20260510072505 10 328 3.2 4.8 0.00 0.28 0.03 98 1010.3
20260510071556 10 333 1.6 6.4 0.03 0.28 0.03 98 1009.4
20260510070503 10 359 3.2 6.4 0.03 0.28 0.03 98 1010.1
20260510070004 10 352 3.2 8.0 0.03 0.28 0.03 98 1010.2
20260510064616 10 355 4.8 8.0 0.03 0.28 0.03 97 1009.2
20260510063529 10 73 1.6 4.8 0.03 0.28 0.03 97 1009.6
20260510063004 10 73 0.0 3.2 0.03 0.28 0.03 97 1009.0
20260510062527 10 73 1.6 3.2 0.03 0.28 0.03 97 1009.8
20260510062005 10 73 1.6 3.2 0.00 0.25 0.00 97 1009.8
20260510061606 10 73 1.6 3.2 0.00 0.25 0.00 97 1009.1
20260510061506 10 0 0.0 3.2 0.00 0.25 0.00 97 1009.8
20260510061026 10 0 0.0 3.2 0.00 0.25 0.00 97 1009.9
20260510060512 10 0 0.0 1.6 0.00 0.25 0.00 97 1010.0
20260510060101 10 73 0.0 1.6 0.00 0.25 0.00 97 1009.2
20260510054507 10 73 0.0 1.6 0.00 0.25 0.00 97 1009.3
20260510054504 10 0 0.0 1.6 0.00 0.25 0.00 97 1010.1
20260510054025 10 0 0.0 1.6 0.00 0.25 0.00 97 1010.0
20260510053109 10 73 0.0 0.0 0.00 0.25 0.00 97 1009.4
20260510051545 10 73 0.0 1.6 0.00 0.25 0.00 97 1009.4
20260510051540 10 0 0.0 1.6 0.00 0.25 0.00 97 1010.2
20260510051003 10 0 0.0 0.0 0.00 0.25 0.00 97 1010.2
20260510050107 10 73 0.0 0.0 0.00 0.25 0.00 96 1009.6
20260510045528 10 0 0.0 0.0 0.00 0.25 0.00 96 1010.3
20260510045025 10 0 0.0 0.0 0.00 0.25 0.00 97 1010.3
20260510044526 10 73 0.0 0.0 0.00 0.25 0.00 97 1009.7
20260510044507 10 0 0.0 0.0 0.00 0.25 0.00 97 1010.4
20260510044005 10 0 0.0 0.0 0.00 0.25 0.00 97 1010.4
20260510043145 10 73 0.0 0.0 0.00 0.25 0.00 97 1009.8
20260510042506 10 0 0.0 0.0 0.00 0.25 0.00 97 1010.4
20260510042003 10 0 0.0 0.0 0.00 0.25 0.00 97 1010.4
20260510041556 10 73 0.0 0.0 0.00 0.25 0.00 97 1009.8
20260510041505 10 0 0.0 0.0 0.00 0.25 0.00 97 1010.6
20260510041033 10 0 0.0 0.0 0.00 0.25 0.00 97 1010.5
20260510040123 10 73 0.0 0.0 0.00 0.25 0.00 96 1009.8
20260510035025 10 0 0.0 0.0 0.00 0.25 0.25 96 1010.5
20260510034532 10 0 0.0 0.0 0.00 0.25 0.25 95 1010.3
20260510034526 10 73 0.0 0.0 0.00 0.25 0.25 95 1009.7
20260510031003 10 0 0.0 3.2 0.00 0.25 0.25 95 1010.1
20260510030524 10 0 0.0 3.2 0.00 0.25 0.25 95 1010.1
20260510030016 10 73 0.0 3.2 0.00 0.25 0.25 95 1009.5
20260510025508 10 0 0.0 3.2 0.00 0.25 0.25 95 1010.1
20260510025024 10 73 1.6 3.2 0.00 0.25 0.25 95 1010.0
20260510024604 10 73 0.0 3.2 0.00 0.25 0.25 94 1009.3
20260510024004 10 0 0.0 1.6 0.00 0.25 0.25 95 1010.0
20260510023506 11 0 0.0 0.0 0.00 0.25 0.25 95 1010.0
20260510023033 10 73 0.0 0.0 0.00 0.25 0.25 95 1009.3
20260510022528 11 0 0.0 0.0 0.00 0.25 0.25 95 1010.1
20260510021510 10 73 0.0 0.0 0.00 0.25 0.25 95 1009.2
20260510020112 10 73 0.0 0.0 0.00 0.25 0.25 95 1009.2
20260510020004 11 0 0.0 0.0 0.00 0.25 0.25 94 1009.9
20260510015506 11 0 0.0 0.0 0.00 0.25 0.25 94 1010.0
20260510014536 11 73 0.0 0.0 0.00 0.25 0.25 94 1009.2
20260510014514 11 0 0.0 1.6 0.00 0.25 0.25 95 1010.0
20260510014003 11 0 0.0 1.6 0.00 0.25 0.25 94 1010.0
20260510013012 11 73 0.0 1.6 0.00 0.25 0.25 94 1009.2
20260510011504 11 0 0.0 0.0 0.00 0.25 0.25 93 1009.9
20260510010111 11 73 0.0 0.0 0.00 0.25 0.25 94 1009.0
20260510010004 12 0 0.0 0.0 0.00 0.25 0.25 94 1009.6
20260510005541 12 0 0.0 0.0 0.00 0.25 0.25 94 1009.6
20260510004515 12 73 0.0 0.0 0.00 0.25 0.25 93 1008.8
20260510004509 12 0 0.0 0.0 0.00 0.25 0.25 93 1009.6
20260510004003 12 0 0.0 1.6 0.00 0.25 0.25 93 1009.6
20260510003016 12 73 0.0 1.6 0.00 0.25 0.25 93 1008.7
20260510002004 12 0 0.0 1.6 0.00 0.25 0.25 93 1009.4
20260510001600 12 73 0.0 0.0 0.00 0.25 0.25 92 1008.7
20260510000003 13 0 0.0 0.0 0.00 0.25 0.25 92 1009.4
20260509235511 13 0 0.0 1.6 0.00 0.25 0.25 92 1009.4
20260509234535 13 73 0.0 1.6 0.00 0.25 0.25 92 1008.6
20260509234004 13 0 0.0 3.2 0.00 0.25 0.25 92 1009.4
20260509233505 14 0 0.0 3.2 0.00 0.25 0.25 92 1009.4
20260509233006 14 0 0.0 1.6 0.00 0.25 0.25 92 1009.4
20260509233004 13 61 0.0 3.2 0.00 0.25 0.25 92 1008.6
20260509231515 14 70 0.0 3.2 0.00 0.25 0.25 92 1008.6
20260509231504 14 60 1.6 3.2 0.00 0.25 0.25 92 1009.4
20260509225011 14 102 1.6 4.8 0.00 0.25 0.25 92 1009.3
20260509224535 14 60 1.6 6.4 0.00 0.25 0.25 93 1008.5
20260509224004 14 91 1.6 6.4 0.00 0.25 0.25 93 1009.4
20260509223003 13 0 0.0 3.2 0.00 0.25 0.25 93 1009.2
20260509221616 13 159 0.0 3.2 0.00 0.25 0.25 92 1008.5
20260509220504 13 0 0.0 6.4 0.18 0.25 0.25 92 1009.5
20260509220126 13 111 0.0 3.2 0.20 0.25 0.25 92 1008.8
20260509220026 13 105 1.6 6.4 0.20 0.25 0.25 93 1009.6
20260509215504 13 112 1.6 6.4 0.23 0.25 0.25 92 1009.5
20260509214618 13 90 1.6 9.7 0.25 0.25 0.25 92 1008.9
20260509214004 13 0 0.0 9.7 0.25 0.25 0.25 92 1009.7
20260509213148 13 123 0.0 4.8 0.25 0.25 0.25 92 1009.1
20260509211600 13 143 0.0 3.2 0.25 0.25 0.25 90 1009.0
20260509211025 13 86 1.6 4.8 0.20 0.20 0.20 89 1009.9
20260509210507 13 0 0.0 4.8 0.08 0.08 0.08 88 1010.1
20260509210139 13 46 0.0 4.8 0.05 0.05 0.05 88 1009.0
20260509204646 13 347 1.6 8.0 0.00 0.00 0.00 87 1008.9
20260509203113 14 340 3.2 14.5 0.00 0.00 0.00 87 1008.6
20260509203004 14 350 8.0 17.7 0.00 0.00 0.00 87 1009.4
20260509202025 14 345 11.3 22.5 0.00 0.00 0.00 86 1009.2
20260509201609 14 285 8.0 22.5 0.00 0.00 0.00 86 1008.7
20260509201504 14 348 14.5 22.5 0.00 0.00 0.00 86 1009.5
20260509200008 14 355 9.7 17.7 0.00 0.00 0.00 86 1008.7
20260509195504 14 352 11.3 17.7 0.00 0.00 0.00 86 1009.5
20260509194559 14 360 11.3 17.7 0.00 0.00 0.00 88 1008.9
20260509194004 14 320 8.0 17.7 0.00 0.00 0.00 87 1009.8
20260509193004 14 339 9.7 19.3 0.00 0.00 0.00 86 1010.1
20260509192525 15 337 6.4 19.3 0.00 0.00 0.00 86 1010.2
20260509192026 15 331 6.4 12.9 0.00 0.00 0.00 85 1010.2
20260509191546 15 325 6.4 14.5 0.00 0.00 0.00 84 1010.2
20260509191512 14 307 6.4 12.9 0.00 0.00 0.00 84 1009.4
20260509191025 15 328 6.4 14.5 0.00 0.00 0.00 84 1010.1